DateTimeUTC,F1_A11,F1_S11,BsB_S11,BsG_S11,BsR_S11,BbsB_S11,BbsG_S11,BbsR_S11,BaB_A11,BaG_A11,BaR_A11,Tu_S11,T_S11,Uu_S11,U_S11,P_S11,T1_A11
2021-08-19T18:00:00Z,00000200,20000000,,,,,,,-000.27,-000.09,-000.21,20.6,27.2,11.3,07.6,0675.6,31.2
2021-08-19T18:01:00Z,00000200,20000000,,,,,,,0000.01,0000.26,-000.21,20.6,27.2,11.3,07.6,0675.6,31.2
2021-08-19T18:02:00Z,00000200,20000000,,,,,,,0000.33,0000.04,0000.29,20.6,27.2,11.3,07.6,0675.6,31.2
2021-08-19T18:03:00Z,00000200,60000000,,,,,,,0000.97,0000.44,0000.24,20.6,27.2,11.3,07.6,0675.6,31.2
2021-08-19T18:04:00Z,00000200,40000000,0002.15,0002.13,0001.50,0000.45,0000.38,0000.26,0000.43,0001.06,0000.55,20.7,27.0,11.5,07.9,0676.6,31.2
2021-08-19T18:05:00Z,00000200,00000000,0002.35,0001.63,0001.47,0000.48,0000.46,0000.17,0000.75,0000.42,0000.57,20.8,27.0,11.6,08.0,0676.6,31.2
2021-08-19T18:06:00Z,00000200,00000000,0002.17,0002.01,0001.62,0001.36,0000.35,0000.28,0000.91,0000.54,0000.58,20.8,27.0,11.7,08.0,0676.6,31.2
2021-08-19T18:07:00Z,00000200,00000000,0003.46,0001.82,0001.11,0000.38,0000.48,0000.24,0000.59,0000.69,0000.36,20.8,27.0,11.8,08.1,0676.6,31.1
2021-08-19T18:08:00Z,00000200,00000000,0002.90,0002.06,0001.21,0000.32,0000.19,0000.36,0000.83,0001.01,0000.68,20.8,27.0,11.8,08.1,0676.6,31.2
2021-08-19T18:09:00Z,00000200,00000000,0002.67,0001.84,0001.68,0000.33,0000.50,0000.60,0000.25,0000.25,0000.12,20.8,27.0,11.7,08.1,0676.6,31.2
2021-08-19T18:10:00Z,00000200,00000000,0003.27,0002.23,0000.97,0000.83,0000.51,0000.07,0000.68,0000.70,0000.77,20.8,27.0,11.3,07.8,0676.6,31.1
2021-08-19T18:11:00Z,00000200,00000000,0002.21,0002.53,0001.62,0000.35,0000.74,0000.11,0000.76,0000.68,0000.41,20.8,27.0,11.3,07.8,0676.6,31.1
2021-08-19T18:12:00Z,00000200,00000000,0002.36,0002.71,0001.71,0000.63,0000.15,0000.31,0001.25,0000.79,0000.89,20.8,26.9,11.2,07.7,0676.6,31.2
2021-08-19T18:13:00Z,00000200,00000000,0002.64,0002.36,0001.96,0000.33,0000.55,0000.63,0000.80,0000.75,0000.63,20.8,26.9,11.4,07.8,0676.6,31.2
2021-08-19T18:14:00Z,00000200,00000000,0003.00,0001.96,0001.64,0000.59,0000.33,0000.37,0000.77,0000.94,0000.51,20.8,26.9,11.5,07.9,0676.6,31.2
2021-08-19T18:15:00Z,00000200,00000000,0002.18,0002.29,0001.47,0000.51,0000.25,0000.24,0000.88,0000.67,0000.65,20.8,26.9,11.4,07.9,0676.6,31.2
2021-08-19T18:16:00Z,00000200,00000000,0003.34,0002.15,0001.49,0000.70,0000.25,0000.10,0000.53,0000.42,0000.35,20.7,26.9,11.3,07.8,0676.6,31.2
2021-08-19T18:17:00Z,00000200,00000000,0002.84,0002.08,0001.49,0000.61,0000.47,-000.12,0000.86,0000.89,0000.71,20.8,26.9,11.3,07.8,0676.6,31.2
2021-08-19T18:18:00Z,00000200,00000000,0003.71,0002.23,0001.52,0000.36,0000.37,0000.49,0000.79,0000.84,0000.71,20.7,26.9,11.4,07.9,0676.6,31.2
2021-08-19T18:19:00Z,00000200,00000000,0003.01,0002.39,0001.47,0000.25,0000.23,0000.08,0000.80,0000.49,0000.33,20.8,26.9,11.4,07.9,0676.6,31.1
2021-08-19T18:20:00Z,00000200,00000000,0003.20,0002.18,0001.39,0000.53,0000.34,0000.23,0000.99,0000.86,0000.59,20.8,26.9,11.4,07.9,0676.6,31.1
2021-08-19T18:21:00Z,00000200,00000000,0002.51,0002.31,0001.23,0000.20,0000.30,-000.05,0000.56,0000.74,0000.59,20.8,26.9,11.4,07.9,0676.6,31.1
2021-08-19T18:22:00Z,00000200,00000000,0003.53,0002.13,0001.72,0000.23,0000.17,0000.24,0000.89,0000.70,0000.33,20.8,26.9,11.4,07.9,0676.6,31.1
2021-08-19T18:23:00Z,00000200,00000000,0003.12,0002.09,0001.80,0000.57,-000.02,0000.46,0000.55,0000.66,0000.75,20.8,26.9,11.4,07.9,0676.6,31.2
2021-08-19T18:24:00Z,00000200,00000000,0003.20,0002.04,0001.51,0001.07,0000.56,0000.06,0001.21,0000.83,0000.51,20.8,26.9,11.4,07.9,0676.6,31.1
2021-08-19T18:25:00Z,00000200,00000000,0002.82,0002.14,0001.63,0000.93,0000.47,0000.41,0000.51,0000.74,0000.58,20.8,26.9,11.5,08.0,0676.6,31.1
2021-08-19T18:26:00Z,00000200,00000000,0002.80,0002.26,0001.92,0000.03,0000.19,0000.23,0000.86,0000.44,0000.32,20.8,26.9,11.6,08.1,0676.6,31.1
2021-08-19T18:27:00Z,00000200,00000000,0002.82,0002.32,0001.35,0001.39,0000.55,0000.34,0000.71,0001.17,0000.83,20.8,26.9,11.6,08.0,0676.6,31.1
2021-08-19T18:28:00Z,00000200,00000000,0003.03,0002.18,0001.56,0000.46,0000.43,0000.07,0000.79,0000.50,0000.40,20.8,26.9,11.5,08.0,0676.6,31.1
2021-08-19T18:29:00Z,00000200,00000000,0002.18,0002.40,0001.27,0000.11,0000.16,-000.01,0000.70,0000.74,0000.69,20.8,26.9,11.6,08.0,0676.6,31.2
2021-08-19T18:30:00Z,00000200,00000000,0002.75,0002.11,0001.60,0000.83,0000.54,0000.11,0000.97,0000.76,0000.31,20.8,26.9,11.5,08.0,0676.6,31.2
2021-08-19T18:31:00Z,00000200,00000000,0002.70,0002.17,0001.42,0000.67,0000.74,0000.13,0000.59,0000.38,0000.63,20.7,26.9,11.6,08.0,0676.6,31.2
2021-08-19T18:32:00Z,00000200,00000000,0002.78,0002.03,0001.51,0001.14,0000.25,0000.38,0001.18,0000.88,0000.78,20.8,26.9,11.7,08.1,0676.6,31.1
2021-08-19T18:33:00Z,00000200,00000000,0002.84,0002.00,0001.43,0000.22,0000.16,0000.29,0000.70,0000.84,0000.45,20.7,26.9,11.8,08.2,0676.6,31.2
2021-08-19T18:34:00Z,00000200,00000000,0002.63,0001.90,0001.54,0001.10,0000.52,0000.50,0000.51,0000.61,0000.72,20.7,26.9,11.8,08.2,0676.6,31.1
2021-08-19T18:35:00Z,00000200,00000000,0002.61,0002.10,0001.40,0000.89,0000.41,0000.52,0000.66,0000.35,0000.23,20.7,26.9,11.9,08.2,0676.6,31.1
2021-08-19T18:36:00Z,00000200,00000000,0002.35,0001.80,0001.07,0000.54,0000.21,-000.06,0000.69,0001.02,0000.63,20.7,26.9,11.8,08.1,0676.6,31.1
2021-08-19T18:37:00Z,00000200,00000000,0002.50,0001.98,0001.18,0000.56,0000.64,0000.10,0000.89,0000.66,0000.38,20.7,26.9,12.0,08.3,0676.6,31.2
2021-08-19T18:38:00Z,00000200,00000000,0002.73,0001.90,0001.54,0000.79,0000.29,0000.34,0000.76,0000.59,0000.48,20.7,26.9,11.9,08.2,0676.6,31.2
2021-08-19T18:39:00Z,00000200,00000000,0002.12,0001.60,0000.86,0000.26,0000.19,0000.08,0000.38,0000.30,0000.51,20.7,26.9,12.1,08.3,0676.6,31.2
2021-08-19T18:40:00Z,00000200,00000000,0001.74,0001.64,0000.67,0000.85,0000.52,0000.12,0000.42,0000.79,0000.34,20.7,26.9,11.9,08.2,0676.6,31.1
2021-08-19T18:41:00Z,00000200,00000000,0002.04,0001.77,0000.85,0000.66,0000.34,0000.06,0001.03,0000.73,0000.54,20.7,26.9,12.0,08.3,0676.6,31.1
2021-08-19T18:42:00Z,00000200,00000000,0002.26,0001.75,0001.24,0000.55,0000.34,0000.28,0000.50,0000.28,-000.04,20.7,26.9,12.1,08.3,0676.6,31.2
2021-08-19T18:43:00Z,00000200,00000000,0001.19,0001.66,0001.07,0000.16,0000.58,0000.02,0000.55,0000.65,0000.67,20.7,26.9,12.0,08.3,0676.5,31.2
2021-08-19T18:44:00Z,00000200,00000000,0002.84,0001.58,0001.13,0000.67,0000.33,0000.10,0000.12,0000.61,0000.50,20.7,26.9,12.0,08.3,0676.5,31.2
2021-08-19T18:45:00Z,00000200,00000000,0002.49,0001.72,0001.23,0000.50,0000.58,0000.06,0000.93,0000.43,0000.83,20.7,26.9,11.9,08.2,0676.6,31.1
2021-08-19T18:46:00Z,00000200,00000000,0002.02,0002.17,0001.02,0000.06,0000.60,0000.06,0000.59,0000.67,0000.12,20.7,26.8,12.0,08.3,0676.6,31.1
2021-08-19T18:47:00Z,00000200,00000000,0002.38,0001.39,0001.02,0000.27,0000.39,0000.32,0000.57,0000.26,0000.25,20.7,26.8,11.9,08.2,0676.6,31.1
2021-08-19T18:48:00Z,00000200,00000000,0002.13,0001.64,0000.84,0000.37,0000.45,0000.12,0000.78,0000.87,0000.56,20.7,26.8,11.9,08.2,0676.6,31.1
2021-08-19T18:49:00Z,00000200,00000000,0002.72,0001.84,0001.23,0000.51,0000.28,0000.17,0000.46,0000.32,0000.52,20.7,26.8,12.0,08.3,0676.6,31.2
2021-08-19T18:50:00Z,00000200,00000000,0002.63,0001.71,0001.25,-000.10,0000.60,0000.09,0000.52,0000.74,0000.23,20.7,26.8,11.9,08.2,0676.6,31.2
2021-08-19T18:51:00Z,00000200,00000000,0002.67,0002.26,0001.26,0000.28,0000.41,0000.10,0000.78,0000.19,0000.62,20.7,26.8,11.6,08.0,0676.6,31.2
2021-08-19T18:52:00Z,00000200,00000000,0002.94,0002.25,0001.70,0001.07,0000.27,0000.30,0000.74,0000.85,0000.45,20.7,26.8,11.6,08.0,0676.6,31.1
2021-08-19T18:53:00Z,00000200,00000000,0002.76,0002.06,0001.40,0000.53,0000.21,0000.15,0001.13,0000.78,0000.73,20.7,26.8,11.5,07.9,0676.6,31.1
2021-08-19T18:54:00Z,00000200,00000000,0002.65,0002.10,0001.33,0000.51,0000.18,0000.14,0000.62,0000.88,0000.68,20.7,26.8,11.5,08.0,0676.6,31.1
2021-08-19T18:55:00Z,00000200,00000000,0002.55,0001.68,0001.33,0000.82,0000.08,0000.18,0000.48,0000.48,0000.22,20.6,26.8,11.5,07.9,0676.6,31.1
2021-08-19T18:56:00Z,00000200,00000000,0003.11,0001.95,0001.22,0000.11,0000.58,0000.01,0001.03,0001.12,0000.52,20.6,26.8,11.6,08.0,0676.6,31.1
2021-08-19T18:57:00Z,00000200,40000000,,,,,,,0000.16,-000.13,0000.45,20.7,26.8,11.7,08.1,0676.6,31.1
2021-08-19T18:58:00Z,00000200,60000000,,,,,,,-000.06,0000.11,0000.03,20.4,26.9,11.9,08.0,0675.6,31.1
2021-08-19T18:59:00Z,00000200,20000000,,,,,,,-000.11,-000.03,-000.37,20.4,27.0,11.8,07.9,0675.6,31.1
